Hourly Data Report for October 19, 2016

All times are specified in Local Standard Time (LST). Add 1 hour to adjust for Daylight Saving Time where and when it is observed.

ARVIAT A
NUNAVUT

61°05'38.000" N
94°04'18.000" W
10.40 m
2300427
71174
YEK

Download Data

Hourly Data (October 2016)
Hourly Data Report for October 19, 2016
Temp Definition
°C
Dew Point Temp Definition
°C
Rel Hum Definition
%
Wind Dir Definition
10's deg

Wind Spd Definition
km/h
Visibility Definition
km
Stn Press Definition
kPa
Hmdx Definition


Wind Chill Definition


Weather Definition


TIME
00:00 Legend Double Dagger 0.8 -3.6 72 8 34 16.1 101.74     LegendNANA
01:00 Legend Double Dagger 0.9 -3.3 74 9 30 16.1 101.78     LegendNANA
02:00 Legend Double Dagger 0.8 -3.2 75 7 22 16.1 101.84     LegendNANA
03:00 Legend Double Dagger 0.5 -3.3 76 9 24 16.1 101.88     LegendNANA
04:00 Legend Double Dagger 0.6 -3.0 77 8 18 16.1 101.92     LegendNANA
05:00 Legend Double Dagger 0.6 -2.8 78 9 21 16.1 101.94     LegendNANA
06:00 Legend Double Dagger 0.5 -2.2 82 7 17 16.1 101.99     LegendNANA
07:00 Legend Double Dagger 0.6 -3.0 77 9 17 16.1 102.05     LegendNANA
08:00 Legend Double Dagger -0.4 -0.8 97 14 5 16.1 102.11   -2 Snow
09:00 Legend Double Dagger -0.6 -1.0 97   0 16.1 102.14     LegendNANA
10:00 Legend Double Dagger -0.6 -1.5 94 31 5 16.1 102.14   -2 LegendNANA
11:00 Legend Double Dagger 0.1 -1.1 92 34 13 16.1 102.18     LegendNANA
12:00 Legend Double Dagger 0.0 -0.3 98 35 11 6.4 102.21   -4 Rain,Fog
13:00 Legend Double Dagger -0.4 -0.5 99 32 9 2.4 102.23   -4 Snow
14:00 Legend Double Dagger -0.1 -0.4 98 33 9 6.4 102.26   -3 Fog
15:00 Legend Double Dagger 0.8 -2.0 82 33 5 16.1 102.27     LegendNANA
16:00 Legend Double Dagger 0.7 -0.9 89 36 5 16.1 102.28     LegendNANA
17:00 Legend Double Dagger -0.2 -0.8 96 22 8 16.1 102.28   -3 LegendNANA
18:00 Legend Double Dagger -0.6 -1.3 95 20 5 16.1 102.28   -2 LegendNANA
19:00 Legend Double Dagger -1.0 -2.0 93 23 11 16.1 102.31   -5 LegendNANA
20:00 Legend Double Dagger -0.4 -1.8 90 23 13 16.1 102.31   -5 LegendNANA
21:00 Legend Double Dagger -0.4 -2.6 85 23 17 16.1 102.29   -5 LegendNANA
22:00 Legend Double Dagger -0.6 -2.2 89 23 17 16.1 102.25   -6 LegendNANA
23:00 Legend Double Dagger -0.6 -3.2 83 26 15 16.1 102.23   -5 LegendNANA

Notes on Data Quality.

Legend

  • E = Estimated
  • M = Missing
  • NA = Not Available
  • ‡ = Partner data that is not subject to review by the National Climate Archives
Date modified: